This is the latest recevied weather packets stored in our database for station/object N4NVD-13. If no packets are shown the sender has not sent any weather packets the latest 10 day(s).
| Time | Temp. | Humidity | Pressure | Rain* | Wind** | Luminosity | Snow |
|---|---|---|---|---|---|---|---|
| 1777993735 | 23.89° C | 94% | 1008 hPa | 0 mm | - | 181 W/m² | - |
| 1777993427 | 23.89° C | 94% | 1007.9 hPa | 0 mm | - | 186 W/m² | - |
| 1777993127 | 23.89° C | 94% | 1007.9 hPa | 0 mm | - | 202 W/m² | - |
| 1777992825 | 23.33° C | 95% | 1007.9 hPa | 0 mm | - | 146 W/m² | - |
| 1777992523 | 23.33° C | 95% | 1008 hPa | 0 mm | - | 126 W/m² | - |
| 1777992221 | 23.33° C | 95% | 1008 hPa | 0 mm | - | 76 W/m² | - |
| 1777991918 | 23.33° C | 95% | 1007.9 hPa | 0 mm | - | 86 W/m² | - |
| 1777991615 | 23.33° C | 95% | 1007.6 hPa | 0 mm | - | 97 W/m² | - |
| 1777991312 | 23.33° C | 95% | 1007.7 hPa | 0 mm | - | 45 W/m² | - |
| 1777991010 | 23.33° C | 95% | 1007.8 hPa | 0 mm | - | 110 W/m² | - |
| 1777990707 | 22.78° C | 95% | 1007.7 hPa | 0 mm | - | 64 W/m² | - |
| 1777990404 | 22.78° C | 96% | 1007.6 hPa | 0 mm | - | 69 W/m² | - |
| 1777989797 | 22.78° C | 96% | 1007.8 hPa | 0 mm | - | 53 W/m² | - |
| 1777989494 | 22.78° C | 95% | 1007.7 hPa | 0 mm | - | 38 W/m² | - |
| 1777989190 | 22.78° C | 96% | 1007.8 hPa | 0 mm | - | 45 W/m² | - |
| 1777988887 | 22.78° C | 95% | 1007.7 hPa | 0 mm | - | 48 W/m² | - |
| 1777988584 | 22.78° C | 96% | 1007.7 hPa | 0 mm | - | 49 W/m² | - |
| 1777988280 | 22.78° C | 96% | 1007.6 hPa | 0 mm | - | 59 W/m² | - |
| 1777987977 | 22.78° C | 96% | 1007.6 hPa | 0 mm | - | 27 W/m² | - |
| 1777987673 | 22.78° C | 96% | 1007.7 hPa | 0 mm | - | 31 W/m² | - |
| 1777987370 | 22.78° C | 96% | 1007.6 hPa | 0 mm | - | 38 W/m² | - |
| 1777987067 | 22.78° C | 96% | 1007.5 hPa | 0 mm | - | 44 W/m² | - |
| 1777986764 | 22.22° C | 96% | 1007.3 hPa | 0 mm | - | 64 W/m² | - |
| 1777986462 | 22.22° C | 96% | 1007.1 hPa | 0 mm | - | 57 W/m² | - |
| 1777986160 | 22.22° C | 96% | 1007.3 hPa | 0 mm | - | 29 W/m² | - |
* Rain latest hour (hover to see other rain measurements)
** Current wind speed in m/s (hover to see current wind gust speed)